Time,TemperatureF,DewpointF,PressureIn,WindDirection,WindDirectionDegrees,WindSpeedMPH,WindSpeedGustMPH,Humidity,HourlyPrecipIn,Conditions,Clouds,dailyrainin,SolarRadiationWatts/m^2,SoftwareType,DateUTC
2013-05-29 00:03:00,43.5,30.5,29.87,WNW,301,8.0,13.0,60,0.00,,,0.00,0,WeatherCatV1.15B25,2013-05-29 07:03:00,
2013-05-29 00:08:00,43.3,30.8,29.87,WNW,299,6.0,12.0,61,0.00,,,0.00,0,WeatherCatV1.15B25,2013-05-29 07:08:00,
2013-05-29 00:13:00,43.2,31.5,29.87,WNW,301,10.0,15.0,63,0.00,,,0.00,0,WeatherCatV1.15B25,2013-05-29 07:13:00,
2013-05-29 00:18:00,42.9,32.0,29.87,NW,312,12.0,13.0,65,0.00,,,0.00,0,WeatherCatV1.15B25,2013-05-29 07:18:00,
2013-05-29 00:23:00,42.6,31.3,29.87,WNW,300,11.0,12.0,64,0.00,,,0.00,0,WeatherCatV1.15B25,2013-05-29 07:23:00,
2013-05-29 00:28:00,42.5,30.4,29.87,NW,308,10.0,12.0,62,0.00,,,0.00,0,WeatherCatV1.15B25,2013-05-29 07:28:00,
2013-05-29 00:34:00,42.5,30.4,29.85,WNW,302,7.0,12.0,62,0.00,,,0.00,0,WeatherCatV1.15B25,2013-05-29 07:34:00,
2013-05-29 00:39:00,42.5,30.4,29.85,WNW,288,9.0,12.0,62,0.00,,,0.00,0,WeatherCatV1.15B25,2013-05-29 07:39:00,
2013-05-29 00:44:00,42.6,29.3,29.85,WNW,293,10.0,14.0,59,0.00,,,0.00,0,WeatherCatV1.15B25,2013-05-29 07:44:00,
2013-05-29 00:49:00,42.6,30.1,29.85,WNW,301,10.0,17.0,61,0.00,,,0.00,0,WeatherCatV1.15B25,2013-05-29 07:49:00,
2013-05-29 00:54:00,42.6,30.1,29.85,NW,316,7.0,10.0,61,0.00,,,0.00,0,WeatherCatV1.15B25,2013-05-29 07:54:00,
2013-05-29 00:59:00,42.5,29.6,29.84,WNW,293,6.0,16.0,60,0.00,,,0.00,0,WeatherCatV1.15B25,2013-05-29 07:59:00,
2013-05-29 01:04:00,42.6,28.4,29.84,WNW,293,21.0,21.0,57,0.00,,,0.00,0,WeatherCatV1.15B25,2013-05-29 08:04:00,
2013-05-29 01:09:00,42.9,27.0,29.84,WNW,297,9.0,17.0,53,0.00,,,0.00,0,WeatherCatV1.15B25,2013-05-29 08:09:00,
2013-05-29 01:14:00,43.2,24.9,29.82,WNW,293,15.0,18.0,48,0.00,,,0.00,0,WeatherCatV1.15B25,2013-05-29 08:14:00,
2013-05-29 01:19:00,43.8,23.3,29.82,WSW,258,19.0,21.0,44,0.00,,,0.00,0,WeatherCatV1.15B25,2013-05-29 08:19:00,
2013-05-29 01:24:00,44.3,23.8,29.82,West,261,11.0,16.0,44,0.00,,,0.00,0,WeatherCatV1.15B25,2013-05-29 08:24:00,
2013-05-29 01:29:00,44.2,23.7,29.81,WSW,257,6.0,16.0,44,0.00,,,0.00,0,WeatherCatV1.15B25,2013-05-29 08:29:00,
2013-05-29 01:34:00,44.3,23.2,29.81,West,265,6.0,14.0,43,0.00,,,0.00,0,WeatherCatV1.15B25,2013-05-29 08:34:00,
2013-05-29 01:39:00,44.3,23.8,29.81,West,272,10.0,14.0,44,0.00,,,0.00,0,WeatherCatV1.15B25,2013-05-29 08:39:00,
2013-05-29 01:44:00,44.3,24.8,29.81,WNW,288,10.0,14.0,46,0.00,,,0.00,0,WeatherCatV1.15B25,2013-05-29 08:44:00,
2013-05-29 01:49:00,44.6,25.6,29.81,West,260,7.0,19.0,47,0.00,,,0.00,0,WeatherCatV1.15B25,2013-05-29 08:49:00,
2013-05-29 01:54:00,44.9,25.4,29.81,West,277,11.0,15.0,46,0.00,,,0.00,0,WeatherCatV1.15B25,2013-05-29 08:54:00,
2013-05-29 01:59:00,44.9,24.3,29.80,West,261,13.0,18.0,44,0.00,,,0.00,0,WeatherCatV1.15B25,2013-05-29 08:59:00,
2013-05-29 02:04:00,45.1,24.5,29.80,WNW,283,9.0,19.0,44,0.00,,,0.00,0,WeatherCatV1.15B25,2013-05-29 09:04:00,
2013-05-29 02:09:00,45.1,24.0,29.80,WNW,288,8.0,18.0,43,0.00,,,0.00,0,WeatherCatV1.15B25,2013-05-29 09:09:00,
2013-05-29 02:14:00,45.1,23.4,29.78,West,279,9.0,18.0,42,0.00,,,0.00,0,WeatherCatV1.15B25,2013-05-29 09:14:00,
2013-05-29 02:19:00,45.1,25.6,29.78,West,276,5.0,10.0,46,0.00,,,0.00,0,WeatherCatV1.15B25,2013-05-29 09:19:00,
2013-05-29 02:24:00,45.1,25.0,29.78,WSW,244,5.0,13.0,45,0.00,,,0.00,0,WeatherCatV1.15B25,2013-05-29 09:24:00,
2013-05-29 02:29:00,45.1,26.6,29.77,WSW,253,7.0,19.0,48,0.00,,,0.00,0,WeatherCatV1.15B25,2013-05-29 09:29:00,
2013-05-29 02:34:00,45.1,26.6,29.77,WNW,283,6.0,18.0,48,0.00,,,0.00,0,WeatherCatV1.15B25,2013-05-29 09:34:00,
2013-05-29 02:39:00,44.9,25.4,29.77,West,276,9.0,15.0,46,0.00,,,0.00,0,WeatherCatV1.15B25,2013-05-29 09:39:00,
2013-05-29 02:44:00,44.8,26.3,29.75,WNW,283,6.0,18.0,48,0.00,,,0.00,0,WeatherCatV1.15B25,2013-05-29 09:44:00,
2013-05-29 02:49:00,44.6,27.1,29.75,WNW,293,11.0,16.0,50,0.00,,,0.00,0,WeatherCatV1.15B25,2013-05-29 09:49:00,
2013-05-29 02:54:00,44.6,27.6,29.75,SW,223,10.0,18.0,51,0.00,,,0.00,0,WeatherCatV1.15B25,2013-05-29 09:54:00,
2013-05-29 02:59:00,44.6,27.1,29.75,West,269,7.0,14.0,50,0.00,,,0.00,0,WeatherCatV1.15B25,2013-05-29 09:59:00,
2013-05-29 03:04:00,44.5,27.5,29.75,WSW,252,7.0,15.0,51,0.00,,,0.00,0,WeatherCatV1.15B25,2013-05-29 10:04:00,
2013-05-29 03:09:00,44.6,29.0,29.75,WSW,243,14.0,22.0,54,0.00,,,0.00,0,WeatherCatV1.15B25,2013-05-29 10:09:00,
2013-05-29 03:14:00,44.6,29.4,29.75,West,259,3.0,12.0,55,0.00,,,0.00,0,WeatherCatV1.15B25,2013-05-29 10:14:00,
2013-05-29 03:19:00,44.6,30.7,29.75,WSW,237,5.0,18.0,58,0.00,,,0.00,0,WeatherCatV1.15B25,2013-05-29 10:19:00,
2013-05-29 03:24:00,44.8,30.5,29.75,West,266,5.0,14.0,57,0.00,,,0.00,0,WeatherCatV1.15B25,2013-05-29 10:24:00,
2013-05-29 03:29:00,44.8,30.5,29.74,WNW,288,9.0,11.0,57,0.00,,,0.00,0,WeatherCatV1.15B25,2013-05-29 10:29:00,
2013-05-29 03:34:00,44.8,30.1,29.74,WSW,242,19.0,22.0,56,0.00,,,0.00,0,WeatherCatV1.15B25,2013-05-29 10:34:00,
2013-05-29 03:39:00,44.6,29.4,29.74,WNW,283,7.0,18.0,55,0.00,,,0.00,0,WeatherCatV1.15B25,2013-05-29 10:39:00,
2013-05-29 03:44:00,44.2,30.4,29.75,West,261,14.0,22.0,58,0.00,,,0.00,0,WeatherCatV1.15B25,2013-05-29 10:44:00,
2013-05-29 03:49:00,43.8,30.0,29.75,WSW,250,3.0,13.0,58,0.00,,,0.00,0,WeatherCatV1.15B25,2013-05-29 10:49:00,
2013-05-29 03:54:00,43.5,30.1,29.75,SW,216,9.0,18.0,59,0.00,,,0.00,0,WeatherCatV1.15B25,2013-05-29 10:54:00,
2013-05-29 03:59:00,43.3,30.4,29.74,West,259,11.0,14.0,60,0.00,,,0.00,0,WeatherCatV1.15B25,2013-05-29 10:59:00,
2013-05-29 04:04:00,42.9,32.0,29.74,SSW,203,9.0,19.0,65,0.00,,,0.00,0,WeatherCatV1.15B25,2013-05-29 11:04:00,
2013-05-29 04:09:00,42.3,31.4,29.74,West,265,7.0,17.0,65,0.00,,,0.00,0,WeatherCatV1.15B25,2013-05-29 11:09:00,
2013-05-29 04:14:00,42.2,31.3,29.73,SW,230,12.0,15.0,65,0.00,,,0.00,0,WeatherCatV1.15B25,2013-05-29 11:14:00,
2013-05-29 04:19:00,41.9,32.1,29.73,WNW,288,16.0,17.0,68,0.00,,,0.00,0,WeatherCatV1.15B25,2013-05-29 11:19:00,
2013-05-29 04:24:00,41.8,32.0,29.73,WNW,288,13.0,28.0,68,0.00,,,0.00,0,WeatherCatV1.15B25,2013-05-29 11:24:00,
2013-05-29 04:29:00,41.5,32.1,29.74,West,274,4.0,28.0,69,0.00,,,0.00,0,WeatherCatV1.15B25,2013-05-29 11:29:00,
2013-05-29 04:34:00,41.2,32.5,29.74,WSW,256,11.0,15.0,71,0.00,,,0.00,0,WeatherCatV1.15B25,2013-05-29 11:34:00,
2013-05-29 04:39:00,40.8,33.2,29.74,WSW,252,15.0,21.0,74,0.00,,,0.00,0,WeatherCatV1.15B25,2013-05-29 11:39:00,
2013-05-29 04:44:00,40.3,33.0,29.72,WSW,252,15.0,25.0,75,0.00,,,0.00,0,WeatherCatV1.15B25,2013-05-29 11:44:00,
2013-05-29 04:49:00,40.2,32.9,29.72,WNW,288,15.0,25.0,75,0.00,,,0.00,0,WeatherCatV1.15B25,2013-05-29 11:49:00,
2013-05-29 04:54:00,40.1,32.8,29.72,WNW,288,12.0,25.0,75,0.00,,,0.00,0,WeatherCatV1.15B25,2013-05-29 11:54:00,
2013-05-29 04:59:00,40.2,33.6,29.73,WSW,243,8.0,17.0,77,0.00,,,0.00,0,WeatherCatV1.15B25,2013-05-29 11:59:00,
2013-05-29 05:04:00,39.9,34.2,29.73,WSW,242,4.0,17.0,80,0.00,,,0.00,0,WeatherCatV1.15B25,2013-05-29 12:04:00,
2013-05-29 05:09:00,39.8,34.8,29.73,WNW,288,15.0,17.0,82,0.00,,,0.00,0,WeatherCatV1.15B25,2013-05-29 12:09:00,
2013-05-29 05:14:00,39.5,34.8,29.74,WNW,283,9.0,25.0,83,0.00,,,0.00,0,WeatherCatV1.15B25,2013-05-29 12:14:00,
2013-05-29 05:19:00,39.5,35.1,29.74,SE,143,3.0,17.0,84,0.00,,,0.00,0,WeatherCatV1.15B25,2013-05-29 12:19:00,
2013-05-29 05:24:00,39.5,35.1,29.74,West,278,15.0,19.0,84,0.00,,,0.00,0,WeatherCatV1.15B25,2013-05-29 12:24:00,
2013-05-29 05:29:00,39.6,35.2,29.73,WSW,237,12.0,23.0,84,0.00,,,0.00,0,WeatherCatV1.15B25,2013-05-29 12:29:00,
2013-05-29 05:34:00,39.6,35.5,29.73,WSW,253,10.0,14.0,85,0.00,,,0.00,0,WeatherCatV1.15B25,2013-05-29 12:34:00,
2013-05-29 05:39:00,39.8,35.7,29.73,West,262,14.0,21.0,85,0.00,,,0.00,0,WeatherCatV1.15B25,2013-05-29 12:39:00,
2013-05-29 05:44:00,39.8,36.0,29.75,West,274,12.0,19.0,86,0.00,,,0.01,0,WeatherCatV1.15B25,2013-05-29 12:44:00,
2013-05-29 05:49:00,39.8,36.3,29.75,West,265,9.0,17.0,87,0.00,,,0.01,5,WeatherCatV1.15B25,2013-05-29 12:49:00,
2013-05-29 05:54:00,39.6,36.3,29.75,NW,305,10.0,24.0,88,0.00,,,0.01,7,WeatherCatV1.15B25,2013-05-29 12:54:00,
2013-05-29 05:59:00,39.5,36.2,29.74,WNW,283,7.0,22.0,88,0.00,,,0.01,12,WeatherCatV1.15B25,2013-05-29 12:59:00,
2013-05-29 06:04:00,39.8,36.5,29.74,SW,226,11.0,20.0,88,0.00,,,0.01,14,WeatherCatV1.15B25,2013-05-29 13:04:00,
2013-05-29 06:09:00,39.8,36.3,29.74,SW,232,4.0,16.0,87,0.00,,,0.01,19,WeatherCatV1.15B25,2013-05-29 13:09:00,
2013-05-29 06:14:00,39.8,36.3,29.75,SW,222,7.0,22.0,87,0.00,,,0.01,49,WeatherCatV1.15B25,2013-05-29 13:14:00,
2013-05-29 06:19:00,40.1,36.3,29.75,WNW,288,14.0,22.0,86,0.00,,,0.01,33,WeatherCatV1.15B25,2013-05-29 13:19:00,
2013-05-29 06:24:00,40.1,36.0,29.75,NNW,330,9.0,17.0,85,0.00,,,0.01,70,WeatherCatV1.15B25,2013-05-29 13:24:00,
2013-05-29 06:29:00,40.3,35.9,29.75,SW,231,9.0,13.0,84,0.00,,,0.01,100,WeatherCatV1.15B25,2013-05-29 13:29:00,
2013-05-29 06:34:00,40.8,35.7,29.75,NW,313,12.0,22.0,82,0.00,,,0.01,125,WeatherCatV1.15B25,2013-05-29 13:34:00,
2013-05-29 06:39:00,41.2,35.8,29.75,SW,236,5.0,22.0,81,0.00,,,0.01,134,WeatherCatV1.15B25,2013-05-29 13:39:00,
2013-05-29 06:44:00,41.6,35.9,29.74,West,270,10.0,23.0,80,0.00,,,0.01,158,WeatherCatV1.15B25,2013-05-29 13:44:00,
2013-05-29 06:49:00,41.9,36.2,29.74,West,268,4.0,16.0,80,0.00,,,0.01,181,WeatherCatV1.15B25,2013-05-29 13:49:00,
2013-05-29 06:54:00,42.2,36.2,29.74,West,265,4.0,17.0,79,0.00,,,0.01,102,WeatherCatV1.15B25,2013-05-29 13:54:00,
2013-05-29 06:59:00,42.5,36.5,29.73,West,269,6.0,18.0,79,0.00,,,0.01,113,WeatherCatV1.15B25,2013-05-29 13:59:00,
2013-05-29 07:04:00,42.8,36.4,29.73,WNW,288,7.0,17.0,78,0.00,,,0.01,206,WeatherCatV1.15B25,2013-05-29 14:04:00,
2013-05-29 07:09:00,42.9,36.5,29.73,NW,304,4.0,22.0,78,0.00,,,0.01,265,WeatherCatV1.15B25,2013-05-29 14:09:00,
2013-05-29 07:14:00,43.1,36.4,29.76,WNW,283,16.0,16.0,77,0.00,,,0.01,193,WeatherCatV1.15B25,2013-05-29 14:14:00,
2013-05-29 07:19:00,43.3,36.3,29.76,West,261,11.0,17.0,76,0.00,,,0.01,274,WeatherCatV1.15B25,2013-05-29 14:19:00,
2013-05-29 07:24:00,43.5,36.1,29.76,NW,313,11.0,25.0,75,0.00,,,0.01,250,WeatherCatV1.15B25,2013-05-29 14:24:00,
2013-05-29 07:29:00,43.6,36.2,29.74,West,260,10.0,24.0,75,0.00,,,0.01,272,WeatherCatV1.15B25,2013-05-29 14:29:00,
2013-05-29 07:34:00,43.9,36.5,29.74,WSW,251,4.0,20.0,75,0.00,,,0.01,309,WeatherCatV1.15B25,2013-05-29 14:34:00,
2013-05-29 07:39:00,44.1,37.0,29.74,WNW,297,13.0,15.0,76,0.00,,,0.01,292,WeatherCatV1.15B25,2013-05-29 14:39:00,
2013-05-29 07:44:00,44.2,36.8,29.74,WSW,249,7.0,19.0,75,0.00,,,0.01,304,WeatherCatV1.15B25,2013-05-29 14:44:00,
2013-05-29 07:49:00,44.5,36.4,29.74,WNW,299,12.0,21.0,73,0.00,,,0.01,320,WeatherCatV1.15B25,2013-05-29 14:49:00,
2013-05-29 07:54:00,44.8,37.0,29.74,West,268,13.0,19.0,74,0.00,,,0.01,336,WeatherCatV1.15B25,2013-05-29 14:54:00,
2013-05-29 07:59:00,44.9,36.8,29.75,West,259,6.0,22.0,73,0.00,,,0.01,355,WeatherCatV1.15B25,2013-05-29 14:59:00,
2013-05-29 08:04:00,45.2,36.4,29.75,WNW,293,11.0,21.0,71,0.00,,,0.01,425,WeatherCatV1.15B25,2013-05-29 15:04:00,
2013-05-29 08:09:00,45.2,36.0,29.75,WSW,257,15.0,24.0,70,0.00,,,0.01,403,WeatherCatV1.15B25,2013-05-29 15:09:00,
2013-05-29 08:14:00,45.2,36.7,29.77,West,270,11.0,24.0,72,0.00,,,0.01,396,WeatherCatV1.15B25,2013-05-29 15:14:00,
2013-05-29 08:19:00,45.2,37.1,29.77,NW,312,12.0,22.0,73,0.00,,,0.01,452,WeatherCatV1.15B25,2013-05-29 15:19:00,
2013-05-29 08:24:00,45.4,35.1,29.77,WNW,298,23.0,25.0,67,0.00,,,0.01,508,WeatherCatV1.15B25,2013-05-29 15:24:00,
2013-05-29 08:29:00,45.5,35.2,29.77,WNW,293,13.0,26.0,67,0.00,,,0.01,529,WeatherCatV1.15B25,2013-05-29 15:29:00,
2013-05-29 08:34:00,45.8,35.8,29.77,WNW,297,24.0,27.0,68,0.00,,,0.01,178,WeatherCatV1.15B25,2013-05-29 15:34:00,
2013-05-29 08:39:00,45.4,34.3,29.77,WNW,288,13.0,32.0,65,0.00,,,0.01,125,WeatherCatV1.15B25,2013-05-29 15:39:00,
2013-05-29 08:44:00,45.2,33.8,29.79,NW,307,17.0,24.0,64,0.00,,,0.01,575,WeatherCatV1.15B25,2013-05-29 15:44:00,
2013-05-29 08:49:00,45.4,32.3,29.79,WNW,303,26.0,33.0,60,0.00,,,0.01,531,WeatherCatV1.15B25,2013-05-29 15:49:00,
2013-05-29 08:54:00,45.2,32.6,29.79,NW,320,34.0,34.0,61,0.00,,,0.01,745,WeatherCatV1.15B25,2013-05-29 15:54:00,
2013-05-29 08:59:00,44.8,31.8,29.81,NW,310,23.0,37.0,60,0.00,,,0.01,146,WeatherCatV1.15B25,2013-05-29 15:59:00,
2013-05-29 09:04:00,44.8,32.6,29.81,West,270,15.0,23.0,62,0.00,,,0.01,693,WeatherCatV1.15B25,2013-05-29 16:04:00,
2013-05-29 09:09:00,44.8,32.2,29.81,NW,314,22.0,31.0,61,0.00,,,0.01,619,WeatherCatV1.15B25,2013-05-29 16:09:00,
2013-05-29 09:14:00,44.9,32.3,29.81,West,260,18.0,29.0,61,0.00,,,0.01,715,WeatherCatV1.15B25,2013-05-29 16:14:00,
2013-05-29 09:19:00,45.1,31.6,29.81,NW,311,27.0,34.0,59,0.00,,,0.01,680,WeatherCatV1.15B25,2013-05-29 16:19:00,
2013-05-29 09:24:00,45.2,31.3,29.81,WNW,297,17.0,28.0,58,0.00,,,0.01,656,WeatherCatV1.15B25,2013-05-29 16:24:00,
2013-05-29 09:29:00,45.1,31.6,29.82,West,271,10.0,29.0,59,0.00,,,0.01,649,WeatherCatV1.15B25,2013-05-29 16:29:00,
2013-05-29 09:34:00,45.2,31.3,29.82,West,274,19.0,27.0,58,0.00,,,0.01,654,WeatherCatV1.15B25,2013-05-29 16:34:00,
2013-05-29 09:39:00,45.4,31.5,29.82,NW,313,9.0,29.0,58,0.00,,,0.01,677,WeatherCatV1.15B25,2013-05-29 16:39:00,
2013-05-29 09:44:00,45.5,30.3,29.80,West,268,14.0,29.0,55,0.00,,,0.01,689,WeatherCatV1.15B25,2013-05-29 16:44:00,
2013-05-29 09:49:00,45.5,29.4,29.80,WSW,250,19.0,26.0,53,0.00,,,0.01,698,WeatherCatV1.15B25,2013-05-29 16:49:00,
2013-05-29 09:54:00,46.1,29.5,29.80,WNW,299,31.0,31.0,52,0.00,,,0.01,735,WeatherCatV1.15B25,2013-05-29 16:54:00,
2013-05-29 09:59:00,46.0,29.4,29.80,WNW,293,25.0,30.0,52,0.00,,,0.01,731,WeatherCatV1.15B25,2013-05-29 16:59:00,
2013-05-29 10:04:00,45.5,29.4,29.80,NW,319,21.0,31.0,53,0.00,,,0.01,756,WeatherCatV1.15B25,2013-05-29 17:04:00,
2013-05-29 10:09:00,45.7,30.5,29.80,WSW,246,12.0,24.0,55,0.00,,,0.01,745,WeatherCatV1.15B25,2013-05-29 17:09:00,
2013-05-29 10:14:00,46.0,28.4,29.81,SW,230,20.0,22.0,50,0.00,,,0.01,782,WeatherCatV1.15B25,2013-05-29 17:14:00,
2013-05-29 10:19:00,46.0,26.9,29.81,NW,325,19.0,30.0,47,0.00,,,0.01,916,WeatherCatV1.15B25,2013-05-29 17:19:00,
2013-05-29 10:24:00,45.2,27.7,29.81,WNW,293,21.0,30.0,50,0.00,,,0.01,315,WeatherCatV1.15B25,2013-05-29 17:24:00,
2013-05-29 10:29:00,45.4,28.8,29.83,West,273,9.0,21.0,52,0.00,,,0.01,856,WeatherCatV1.15B25,2013-05-29 17:29:00,
2013-05-29 10:34:00,46.8,30.6,29.83,WNW,302,16.0,21.0,53,0.00,,,0.01,1058,WeatherCatV1.15B25,2013-05-29 17:34:00,
2013-05-29 10:39:00,47.0,29.8,29.83,WNW,288,11.0,21.0,51,0.00,,,0.01,362,WeatherCatV1.15B25,2013-05-29 17:39:00,
2013-05-29 10:44:00,46.5,27.9,29.82,NW,311,14.0,26.0,48,0.00,,,0.01,930,WeatherCatV1.15B25,2013-05-29 17:44:00,
2013-05-29 10:49:00,46.2,28.1,29.82,NW,316,25.0,25.0,49,0.00,,,0.01,902,WeatherCatV1.15B25,2013-05-29 17:49:00,
2013-05-29 10:54:00,46.8,29.6,29.82,NW,305,11.0,20.0,51,0.00,,,0.01,362,WeatherCatV1.15B25,2013-05-29 17:54:00,
2013-05-29 10:59:00,46.5,27.4,29.83,West,279,16.0,28.0,47,0.00,,,0.01,860,WeatherCatV1.15B25,2013-05-29 17:59:00,
2013-05-29 11:04:00,46.7,26.0,29.83,WNW,301,30.0,30.0,44,0.00,,,0.01,874,WeatherCatV1.15B25,2013-05-29 18:04:00,
2013-05-29 11:09:00,46.4,26.8,29.83,WNW,293,16.0,28.0,46,0.00,,,0.01,881,WeatherCatV1.15B25,2013-05-29 18:09:00,
2013-05-29 11:14:00,46.4,27.3,29.84,WNW,297,25.0,26.0,47,0.00,,,0.01,893,WeatherCatV1.15B25,2013-05-29 18:14:00,
2013-05-29 11:19:00,46.5,27.9,29.84,WNW,288,11.0,27.0,48,0.00,,,0.01,937,WeatherCatV1.15B25,2013-05-29 18:19:00,
2013-05-29 11:24:00,46.5,27.9,29.84,NW,304,19.0,30.0,48,0.00,,,0.01,909,WeatherCatV1.15B25,2013-05-29 18:24:00,
2013-05-29 11:29:00,46.2,28.6,29.84,WNW,288,13.0,26.0,50,0.00,,,0.01,923,WeatherCatV1.15B25,2013-05-29 18:29:00,
2013-05-29 11:34:00,46.8,29.2,29.84,WNW,288,26.0,28.0,50,0.00,,,0.01,916,WeatherCatV1.15B25,2013-05-29 18:34:00,
2013-05-29 11:39:00,46.5,29.4,29.84,WNW,300,20.0,25.0,51,0.00,,,0.01,925,WeatherCatV1.15B25,2013-05-29 18:39:00,
2013-05-29 11:44:00,47.1,30.4,29.84,NW,304,11.0,19.0,52,0.00,,,0.01,932,WeatherCatV1.15B25,2013-05-29 18:44:00,
2013-05-29 11:49:00,47.6,29.4,29.84,West,274,15.0,23.0,49,0.00,,,0.01,939,WeatherCatV1.15B25,2013-05-29 18:49:00,
2013-05-29 11:54:00,47.6,29.9,29.84,WNW,283,9.0,18.0,50,0.00,,,0.01,947,WeatherCatV1.15B25,2013-05-29 18:54:00,
2013-05-29 11:59:00,47.9,29.2,29.83,WNW,303,11.0,16.0,48,0.00,,,0.01,951,WeatherCatV1.15B25,2013-05-29 18:59:00,
2013-05-29 12:04:00,48.6,28.2,29.83,WNW,293,11.0,19.0,45,0.00,,,0.01,962,WeatherCatV1.15B25,2013-05-29 19:04:00,
2013-05-29 12:09:00,48.8,30.0,29.83,WNW,299,11.0,24.0,48,0.00,,,0.01,962,WeatherCatV1.15B25,2013-05-29 19:09:00,
2013-05-29 12:14:00,48.6,30.3,29.83,WNW,299,12.0,19.0,49,0.00,,,0.01,904,WeatherCatV1.15B25,2013-05-29 19:14:00,
2013-05-29 12:19:00,49.1,30.3,29.83,NNW,334,9.0,19.0,48,0.00,,,0.01,981,WeatherCatV1.15B25,2013-05-29 19:19:00,
2013-05-29 12:24:00,49.5,30.6,29.83,WNW,293,10.0,14.0,48,0.00,,,0.01,977,WeatherCatV1.15B25,2013-05-29 19:24:00,
2013-05-29 12:29:00,49.6,30.2,29.83,North,358,10.0,17.0,47,0.00,,,0.01,981,WeatherCatV1.15B25,2013-05-29 19:29:00,
2013-05-29 12:34:00,49.2,29.8,29.83,NW,316,14.0,16.0,47,0.00,,,0.01,979,WeatherCatV1.15B25,2013-05-29 19:34:00,
2013-05-29 12:39:00,49.4,31.5,29.83,WNW,288,10.0,14.0,50,0.00,,,0.01,981,WeatherCatV1.15B25,2013-05-29 19:39:00,
2013-05-29 12:44:00,49.9,31.5,29.82,NW,308,12.0,14.0,49,0.00,,,0.01,986,WeatherCatV1.15B25,2013-05-29 19:44:00,
2013-05-29 12:49:00,49.9,31.0,29.82,NW,305,15.0,20.0,48,0.00,,,0.01,986,WeatherCatV1.15B25,2013-05-29 19:49:00,
2013-05-29 12:54:00,50.1,32.2,29.82,West,278,12.0,21.0,50,0.00,,,0.01,986,WeatherCatV1.15B25,2013-05-29 19:54:00,
2013-05-29 12:59:00,49.9,31.5,29.82,WSW,251,7.0,23.0,49,0.00,,,0.01,986,WeatherCatV1.15B25,2013-05-29 19:59:00,
2013-05-29 13:04:00,50.7,30.7,29.82,WNW,293,9.0,16.0,46,0.00,,,0.01,991,WeatherCatV1.15B25,2013-05-29 20:04:00,
2013-05-29 13:09:00,50.8,30.8,29.82,West,270,13.0,21.0,46,0.00,,,0.01,991,WeatherCatV1.15B25,2013-05-29 20:09:00,
2013-05-29 13:14:00,50.8,30.8,29.79,WNW,293,10.0,12.0,46,0.00,,,0.01,991,WeatherCatV1.15B25,2013-05-29 20:14:00,
2013-05-29 13:19:00,51.1,30.0,29.79,WNW,299,12.0,16.0,44,0.00,,,0.01,991,WeatherCatV1.15B25,2013-05-29 20:19:00,
2013-05-29 13:24:00,51.4,30.2,29.79,WNW,293,11.0,12.0,44,0.00,,,0.01,993,WeatherCatV1.15B25,2013-05-29 20:24:00,
2013-05-29 13:29:00,52.0,30.8,29.79,WSW,256,14.0,20.0,44,0.00,,,0.01,991,WeatherCatV1.15B25,2013-05-29 20:29:00,
2013-05-29 13:34:00,51.3,28.4,29.79,WNW,288,14.0,21.0,41,0.00,,,0.01,988,WeatherCatV1.15B25,2013-05-29 20:34:00,
2013-05-29 13:39:00,51.0,28.7,29.79,WNW,288,9.0,18.0,42,0.00,,,0.01,983,WeatherCatV1.15B25,2013-05-29 20:39:00,
2013-05-29 13:45:00,51.9,28.9,29.79,West,261,15.0,17.0,41,0.00,,,0.01,983,WeatherCatV1.15B25,2013-05-29 20:45:00,
2013-05-29 13:50:00,51.9,27.7,29.79,NW,306,18.0,21.0,39,0.00,,,0.01,981,WeatherCatV1.15B25,2013-05-29 20:50:00,
2013-05-29 13:55:00,51.6,28.7,29.79,NW,304,18.0,24.0,41,0.00,,,0.01,976,WeatherCatV1.15B25,2013-05-29 20:55:00,
2013-05-29 14:00:00,51.7,29.4,29.79,West,272,16.0,19.0,42,0.00,,,0.01,972,WeatherCatV1.15B25,2013-05-29 21:00:00,
2013-05-29 14:05:00,51.7,28.8,29.79,WNW,301,15.0,20.0,41,0.00,,,0.01,965,WeatherCatV1.15B25,2013-05-29 21:05:00,
2013-05-29 14:10:00,51.7,28.8,29.79,WNW,299,10.0,23.0,41,0.00,,,0.01,962,WeatherCatV1.15B25,2013-05-29 21:10:00,
2013-05-29 14:15:00,51.9,27.7,29.79,NW,315,23.0,25.0,39,0.00,,,0.01,958,WeatherCatV1.15B25,2013-05-29 21:15:00,
2013-05-29 14:20:00,52.0,27.8,29.79,WNW,303,15.0,21.0,39,0.00,,,0.01,954,WeatherCatV1.15B25,2013-05-29 21:20:00,
2013-05-29 14:25:00,52.3,29.3,29.79,WNW,288,10.0,20.0,41,0.00,,,0.01,946,WeatherCatV1.15B25,2013-05-29 21:25:00,
2013-05-29 14:30:00,52.5,28.3,29.77,WNW,293,13.0,24.0,39,0.00,,,0.01,940,WeatherCatV1.15B25,2013-05-29 21:30:00,
2013-05-29 14:35:00,52.5,27.6,29.77,WNW,293,18.0,24.0,38,0.00,,,0.01,933,WeatherCatV1.15B25,2013-05-29 21:35:00,
2013-05-29 14:40:00,52.2,29.2,29.77,WSW,255,12.0,19.0,41,0.00,,,0.01,925,WeatherCatV1.15B25,2013-05-29 21:40:00,
2013-05-29 14:45:00,52.3,29.9,29.79,NW,305,17.0,22.0,42,0.00,,,0.01,919,WeatherCatV1.15B25,2013-05-29 21:45:00,
2013-05-29 14:50:00,52.2,30.4,29.79,NW,318,11.0,21.0,43,0.00,,,0.01,911,WeatherCatV1.15B25,2013-05-29 21:50:00,
2013-05-29 14:55:00,52.6,31.3,29.79,North,9,6.0,15.0,44,0.00,,,0.01,902,WeatherCatV1.15B25,2013-05-29 21:55:00,
2013-05-29 15:00:00,53.2,29.5,29.77,West,269,10.0,18.0,40,0.00,,,0.01,895,WeatherCatV1.15B25,2013-05-29 22:00:00,
2013-05-29 15:05:00,53.2,30.1,29.77,NNW,343,15.0,18.0,41,0.00,,,0.01,888,WeatherCatV1.15B25,2013-05-29 22:05:00,
2013-05-29 15:10:00,53.5,31.0,29.77,WNW,288,12.0,15.0,42,0.00,,,0.01,877,WeatherCatV1.15B25,2013-05-29 22:10:00,
2013-05-29 15:15:00,54.2,31.0,29.80,WNW,293,10.0,17.0,41,0.00,,,0.01,868,WeatherCatV1.15B25,2013-05-29 22:15:00,
2013-05-29 15:20:00,53.9,30.1,29.80,West,276,13.0,19.0,40,0.00,,,0.01,860,WeatherCatV1.15B25,2013-05-29 22:20:00,
2013-05-29 15:25:00,53.3,30.2,29.80,WNW,293,16.0,19.0,41,0.00,,,0.01,847,WeatherCatV1.15B25,2013-05-29 22:25:00,
2013-05-29 15:30:00,52.9,29.8,29.80,WNW,283,8.0,21.0,41,0.00,,,0.01,840,WeatherCatV1.15B25,2013-05-29 22:30:00,
2013-05-29 15:35:00,52.9,29.8,29.80,West,261,14.0,20.0,41,0.00,,,0.01,826,WeatherCatV1.15B25,2013-05-29 22:35:00,
2013-05-29 15:40:00,53.3,30.2,29.80,West,270,15.0,22.0,41,0.00,,,0.01,817,WeatherCatV1.15B25,2013-05-29 22:40:00,
2013-05-29 15:45:00,53.3,31.4,29.80,WNW,283,10.0,14.0,43,0.00,,,0.01,807,WeatherCatV1.15B25,2013-05-29 22:45:00,
2013-05-29 15:50:00,53.3,31.4,29.80,WSW,249,9.0,27.0,43,0.00,,,0.01,793,WeatherCatV1.15B25,2013-05-29 22:50:00,
2013-05-29 15:55:00,52.6,30.2,29.80,WNW,303,24.0,28.0,42,0.00,,,0.01,780,WeatherCatV1.15B25,2013-05-29 22:55:00,
2013-05-29 16:00:00,52.2,31.5,29.81,NW,305,19.0,19.0,45,0.00,,,0.01,770,WeatherCatV1.15B25,2013-05-29 23:00:00,
2013-05-29 16:05:00,52.6,30.2,29.81,NW,326,12.0,18.0,42,0.00,,,0.01,758,WeatherCatV1.15B25,2013-05-29 23:05:00,
2013-05-29 16:10:00,52.9,29.8,29.81,WNW,288,12.0,23.0,41,0.00,,,0.01,745,WeatherCatV1.15B25,2013-05-29 23:10:00,
2013-05-29 16:15:00,53.3,30.2,29.82,NW,316,16.0,20.0,41,0.00,,,0.01,737,WeatherCatV1.15B25,2013-05-29 23:15:00,
2013-05-29 16:20:00,53.3,29.6,29.82,WNW,299,14.0,18.0,40,0.00,,,0.01,724,WeatherCatV1.15B25,2013-05-29 23:20:00,
2013-05-29 16:25:00,53.5,29.8,29.82,NW,309,11.0,17.0,40,0.00,,,0.01,707,WeatherCatV1.15B25,2013-05-29 23:25:00,
2013-05-29 16:30:00,53.6,29.3,29.81,NNW,341,7.0,26.0,39,0.00,,,0.01,691,WeatherCatV1.15B25,2013-05-29 23:30:00,
2013-05-29 16:35:00,53.1,30.0,29.81,NW,310,18.0,23.0,41,0.00,,,0.01,679,WeatherCatV1.15B25,2013-05-29 23:35:00,
2013-05-29 16:40:00,52.9,29.8,29.81,WNW,283,6.0,21.0,41,0.00,,,0.01,664,WeatherCatV1.15B25,2013-05-29 23:40:00,
2013-05-29 16:45:00,53.3,31.4,29.83,West,270,16.0,20.0,43,0.00,,,0.01,650,WeatherCatV1.15B25,2013-05-29 23:45:00,
2013-05-29 16:50:00,52.9,32.1,29.83,WNW,283,12.0,22.0,45,0.00,,,0.01,636,WeatherCatV1.15B25,2013-05-29 23:50:00,
2013-05-29 16:55:00,53.2,31.3,29.83,West,274,4.0,13.0,43,0.00,,,0.01,621,WeatherCatV1.15B25,2013-05-29 23:55:00,
2013-05-29 17:00:00,53.5,31.6,29.83,North,2,9.0,15.0,43,0.00,,,0.01,605,WeatherCatV1.15B25,2013-05-30 00:00:00,
2013-05-29 17:05:00,53.2,32.4,29.83,NW,307,15.0,18.0,45,0.00,,,0.01,592,WeatherCatV1.15B25,2013-05-30 00:05:00,
2013-05-29 17:10:00,52.8,30.9,29.83,NW,314,15.0,23.0,43,0.00,,,0.01,575,WeatherCatV1.15B25,2013-05-30 00:10:00,
2013-05-29 17:15:00,52.6,32.4,29.82,West,269,11.0,18.0,46,0.00,,,0.01,557,WeatherCatV1.15B25,2013-05-30 00:15:00,
2013-05-29 17:20:00,52.9,31.6,29.82,WNW,299,9.0,14.0,44,0.00,,,0.01,543,WeatherCatV1.15B25,2013-05-30 00:20:00,
2013-05-29 17:25:00,52.9,31.0,29.82,WNW,293,21.0,21.0,43,0.00,,,0.01,527,WeatherCatV1.15B25,2013-05-30 00:25:00,
2013-05-29 17:30:00,52.3,30.5,29.83,WNW,288,11.0,23.0,43,0.00,,,0.01,512,WeatherCatV1.15B25,2013-05-30 00:30:00,
2013-05-29 17:35:00,52.3,31.0,29.83,WNW,303,9.0,19.0,44,0.00,,,0.01,492,WeatherCatV1.15B25,2013-05-30 00:35:00,
2013-05-29 17:40:00,52.3,31.0,29.83,West,268,14.0,20.0,44,0.00,,,0.01,476,WeatherCatV1.15B25,2013-05-30 00:40:00,
2013-05-29 17:45:00,52.0,29.0,29.83,WNW,297,21.0,24.0,41,0.00,,,0.01,461,WeatherCatV1.15B25,2013-05-30 00:45:00,
2013-05-29 17:50:00,52.0,30.2,29.83,NW,310,11.0,15.0,43,0.00,,,0.01,445,WeatherCatV1.15B25,2013-05-30 00:50:00,
2013-05-29 17:55:00,51.9,30.1,29.83,WNW,288,9.0,24.0,43,0.00,,,0.01,432,WeatherCatV1.15B25,2013-05-30 00:55:00,
2013-05-29 18:00:00,51.6,31.0,29.83,WNW,288,16.0,23.0,45,0.00,,,0.01,411,WeatherCatV1.15B25,2013-05-30 01:00:00,
2013-05-29 18:05:00,51.7,32.1,29.83,WNW,288,18.0,22.0,47,0.00,,,0.01,396,WeatherCatV1.15B25,2013-05-30 01:05:00,
2013-05-29 18:10:00,51.6,32.0,29.83,WNW,297,19.0,23.0,47,0.00,,,0.01,378,WeatherCatV1.15B25,2013-05-30 01:10:00,
2013-05-29 18:15:00,51.7,32.1,29.81,West,277,15.0,21.0,47,0.00,,,0.01,360,WeatherCatV1.15B25,2013-05-30 01:15:00,
2013-05-29 18:20:00,51.9,31.8,29.81,WSW,250,15.0,19.0,46,0.00,,,0.01,345,WeatherCatV1.15B25,2013-05-30 01:20:00,
2013-05-29 18:25:00,51.9,31.2,29.81,NW,322,14.0,20.0,45,0.00,,,0.01,325,WeatherCatV1.15B25,2013-05-30 01:25:00,
2013-05-29 18:30:00,51.6,31.5,29.81,WNW,300,9.0,23.0,46,0.00,,,0.01,309,WeatherCatV1.15B25,2013-05-30 01:30:00,
2013-05-29 18:35:00,51.4,32.9,29.81,NW,315,15.0,23.0,49,0.00,,,0.01,292,WeatherCatV1.15B25,2013-05-30 01:35:00,
2013-05-29 18:40:00,51.3,32.8,29.81,WNW,302,18.0,21.0,49,0.00,,,0.01,274,WeatherCatV1.15B25,2013-05-30 01:40:00,
2013-05-29 18:45:00,51.1,32.6,29.81,WNW,293,16.0,20.0,49,0.00,,,0.01,257,WeatherCatV1.15B25,2013-05-30 01:45:00,
2013-05-29 18:50:00,50.8,33.3,29.81,NW,308,13.0,20.0,51,0.00,,,0.01,241,WeatherCatV1.15B25,2013-05-30 01:50:00,
2013-05-29 18:55:00,50.7,32.7,29.81,NW,311,11.0,24.0,50,0.00,,,0.01,223,WeatherCatV1.15B25,2013-05-30 01:55:00,
2013-05-29 19:00:00,50.4,33.9,29.82,WNW,298,19.0,26.0,53,0.00,,,0.01,206,WeatherCatV1.15B25,2013-05-30 02:00:00,
2013-05-29 19:05:00,50.1,34.6,29.82,NNW,329,17.0,24.0,55,0.00,,,0.01,190,WeatherCatV1.15B25,2013-05-30 02:05:00,
2013-05-29 19:10:00,49.9,34.4,29.82,NW,311,20.0,24.0,55,0.00,,,0.01,172,WeatherCatV1.15B25,2013-05-30 02:10:00,
2013-05-29 19:15:00,49.8,34.3,29.82,West,266,14.0,21.0,55,0.00,,,0.01,156,WeatherCatV1.15B25,2013-05-30 02:15:00,
2013-05-29 19:20:00,49.6,35.0,29.82,WNW,300,13.0,23.0,57,0.00,,,0.01,142,WeatherCatV1.15B25,2013-05-30 02:20:00,
2013-05-29 19:25:00,49.4,35.2,29.82,WNW,288,12.0,17.0,58,0.00,,,0.01,127,WeatherCatV1.15B25,2013-05-30 02:25:00,
2013-05-29 19:30:00,49.2,35.9,29.82,WNW,288,9.0,19.0,60,0.00,,,0.01,104,WeatherCatV1.15B25,2013-05-30 02:30:00,
2013-05-29 19:35:00,48.8,36.4,29.82,NW,310,17.0,20.0,62,0.00,,,0.01,62,WeatherCatV1.15B25,2013-05-30 02:35:00,
2013-05-29 19:40:00,48.3,37.1,29.82,WNW,293,20.0,21.0,65,0.00,,,0.01,23,WeatherCatV1.15B25,2013-05-30 02:40:00,
2013-05-29 19:45:00,48.0,37.2,29.83,WNW,293,14.0,23.0,66,0.00,,,0.01,23,WeatherCatV1.15B25,2013-05-30 02:45:00,
2013-05-29 19:50:00,47.7,36.9,29.83,NW,325,13.0,19.0,66,0.00,,,0.01,18,WeatherCatV1.15B25,2013-05-30 02:50:00,
2013-05-29 19:55:00,47.6,36.8,29.83,NW,305,12.0,19.0,66,0.00,,,0.01,16,WeatherCatV1.15B25,2013-05-30 02:55:00,
2013-05-29 20:00:00,47.3,36.5,29.85,WSW,255,12.0,19.0,66,0.00,,,0.01,14,WeatherCatV1.15B25,2013-05-30 03:00:00,
2013-05-29 20:05:00,47.1,36.7,29.85,WNW,283,15.0,20.0,67,0.00,,,0.01,16,WeatherCatV1.15B25,2013-05-30 03:05:00,
2013-05-29 20:10:00,46.7,36.7,29.85,NW,310,13.0,17.0,68,0.00,,,0.01,9,WeatherCatV1.15B25,2013-05-30 03:10:00,
2013-05-29 20:15:00,46.4,36.8,29.85,WNW,293,11.0,17.0,69,0.00,,,0.01,5,WeatherCatV1.15B25,2013-05-30 03:15:00,
2013-05-29 20:20:00,46.1,37.2,29.85,West,265,8.0,19.0,71,0.00,,,0.01,0,WeatherCatV1.15B25,2013-05-30 03:20:00,
2013-05-29 20:25:00,45.8,37.3,29.85,NW,315,9.0,17.0,72,0.00,,,0.01,0,WeatherCatV1.15B25,2013-05-30 03:25:00,
2013-05-29 20:30:00,45.5,37.4,29.86,West,263,13.0,17.0,73,0.00,,,0.01,0,WeatherCatV1.15B25,2013-05-30 03:30:00,
2013-05-29 20:35:00,45.2,37.4,29.86,WNW,288,11.0,16.0,74,0.00,,,0.01,0,WeatherCatV1.15B25,2013-05-30 03:35:00,
2013-05-29 20:40:00,45.1,37.7,29.86,West,267,13.0,13.0,75,0.00,,,0.01,0,WeatherCatV1.15B25,2013-05-30 03:40:00,
2013-05-29 20:45:00,44.8,37.7,29.87,NW,307,10.0,15.0,76,0.00,,,0.01,0,WeatherCatV1.15B25,2013-05-30 03:45:00,
2013-05-29 20:50:00,44.6,37.8,29.87,WNW,303,11.0,12.0,77,0.00,,,0.01,0,WeatherCatV1.15B25,2013-05-30 03:50:00,
2013-05-29 20:55:00,44.5,38.1,29.87,WNW,293,10.0,17.0,78,0.00,,,0.01,0,WeatherCatV1.15B25,2013-05-30 03:55:00,
2013-05-29 21:00:00,44.3,36.9,29.88,WNW,297,8.0,10.0,75,0.00,,,0.01,0,WeatherCatV1.15B25,2013-05-30 04:00:00,
2013-05-29 21:01:00,44.3,37.9,29.88,WNW,301,12.0,14.0,78,0.00,,,0.01,0,WeatherCatV1.15B25,2013-05-30 04:01:00,
2013-05-29 21:02:00,44.2,37.8,29.88,NW,322,7.0,14.0,78,0.00,,,0.01,0,WeatherCatV1.15B25,2013-05-30 04:02:00,
2013-05-29 21:03:00,44.2,37.8,29.88,WNW,297,11.0,13.0,78,0.00,,,0.01,0,WeatherCatV1.15B25,2013-05-30 04:03:00,
2013-05-29 21:08:00,44.2,37.8,29.88,WNW,293,8.0,19.0,78,0.00,,,0.01,0,WeatherCatV1.15B25,2013-05-30 04:08:00,
2013-05-29 21:09:00,44.2,37.8,29.88,West,279,9.0,13.0,78,0.00,,,0.01,0,WeatherCatV1.15B25,2013-05-30 04:09:00,
2013-05-29 21:14:00,44.1,37.7,29.87,WNW,283,10.0,12.0,78,0.00,,,0.01,0,WeatherCatV1.15B25,2013-05-30 04:14:00,
2013-05-29 21:19:00,43.9,37.8,29.87,WNW,288,9.0,12.0,79,0.00,,,0.01,0,WeatherCatV1.15B25,2013-05-30 04:19:00,
2013-05-29 21:24:00,43.9,37.8,29.87,WNW,293,9.0,11.0,79,0.00,,,0.01,0,WeatherCatV1.15B25,2013-05-30 04:24:00,
2013-05-29 21:29:00,43.8,37.7,29.88,WNW,288,12.0,14.0,79,0.00,,,0.01,0,WeatherCatV1.15B25,2013-05-30 04:29:00,
2013-05-29 21:34:00,43.8,37.7,29.88,West,279,6.0,9.0,79,0.00,,,0.01,0,WeatherCatV1.15B25,2013-05-30 04:34:00,
2013-05-29 21:39:00,43.6,37.8,29.88,WNW,298,5.0,9.0,80,0.00,,,0.01,0,WeatherCatV1.15B25,2013-05-30 04:39:00,
2013-05-29 21:44:00,43.3,37.6,29.89,WNW,288,14.0,15.0,80,0.00,,,0.01,0,WeatherCatV1.15B25,2013-05-30 04:44:00,
2013-05-29 21:49:00,43.5,37.7,29.89,WNW,293,13.0,13.0,80,0.00,,,0.01,0,WeatherCatV1.15B25,2013-05-30 04:49:00,
2013-05-29 21:54:00,43.3,37.6,29.89,WNW,293,6.0,11.0,80,0.00,,,0.01,0,WeatherCatV1.15B25,2013-05-30 04:54:00,
2013-05-29 21:59:00,43.1,37.4,29.89,NW,317,7.0,15.0,80,0.00,,,0.01,0,WeatherCatV1.15B25,2013-05-30 04:59:00,
2013-05-29 22:04:00,43.1,37.4,29.89,WNW,297,11.0,13.0,80,0.00,,,0.01,0,WeatherCatV1.15B25,2013-05-30 05:04:00,
2013-05-29 22:09:00,43.2,37.5,29.89,WNW,303,9.0,10.0,80,0.00,,,0.01,0,WeatherCatV1.15B25,2013-05-30 05:09:00,
2013-05-29 22:14:00,43.1,37.4,29.89,WNW,301,5.0,11.0,80,0.00,,,0.01,0,WeatherCatV1.15B25,2013-05-30 05:14:00,
2013-05-29 22:19:00,42.9,37.2,29.89,WNW,300,4.0,7.0,80,0.00,,,0.01,0,WeatherCatV1.15B25,2013-05-30 05:19:00,
2013-05-29 22:24:00,42.8,37.4,29.89,WNW,283,4.0,4.0,81,0.00,,,0.01,0,WeatherCatV1.15B25,2013-05-30 05:24:00,
2013-05-29 22:29:00,42.6,37.2,29.89,WNW,293,2.0,3.0,81,0.00,,,0.01,0,WeatherCatV1.15B25,2013-05-30 05:29:00,
2013-05-29 22:34:00,42.3,37.2,29.89,WNW,300,6.0,7.0,82,0.00,,,0.01,0,WeatherCatV1.15B25,2013-05-30 05:34:00,
2013-05-29 22:39:00,42.3,37.2,29.89,NW,311,7.0,10.0,82,0.00,,,0.01,0,WeatherCatV1.15B25,2013-05-30 05:39:00,
2013-05-29 22:44:00,42.3,36.9,29.90,WNW,299,9.0,10.0,81,0.00,,,0.01,0,WeatherCatV1.15B25,2013-05-30 05:44:00,
2013-05-29 22:49:00,42.3,36.6,29.90,WNW,300,7.0,11.0,80,0.00,,,0.01,0,WeatherCatV1.15B25,2013-05-30 05:49:00,
2013-05-29 22:54:00,42.3,36.6,29.90,WNW,293,6.0,11.0,80,0.00,,,0.01,0,WeatherCatV1.15B25,2013-05-30 05:54:00,
2013-05-29 22:59:00,42.2,36.5,29.91,NW,312,11.0,12.0,80,0.00,,,0.01,0,WeatherCatV1.15B25,2013-05-30 05:59:00,
2013-05-29 23:04:00,42.2,36.5,29.91,WNW,301,10.0,14.0,80,0.00,,,0.01,0,WeatherCatV1.15B25,2013-05-30 06:04:00,
2013-05-29 23:09:00,42.2,36.5,29.91,WNW,293,9.0,14.0,80,0.00,,,0.01,0,WeatherCatV1.15B25,2013-05-30 06:09:00,
2013-05-29 23:14:00,42.2,36.5,29.89,WNW,293,13.0,17.0,80,0.00,,,0.01,0,WeatherCatV1.15B25,2013-05-30 06:14:00,
2013-05-29 23:19:00,42.1,36.4,29.89,WNW,288,10.0,14.0,80,0.00,,,0.01,0,WeatherCatV1.15B25,2013-05-30 06:19:00,
2013-05-29 23:24:00,41.9,36.2,29.89,WNW,303,14.0,16.0,80,0.00,,,0.01,0,WeatherCatV1.15B25,2013-05-30 06:24:00,
2013-05-29 23:29:00,41.8,36.1,29.89,WNW,283,10.0,14.0,80,0.00,,,0.01,0,WeatherCatV1.15B25,2013-05-30 06:29:00,
2013-05-29 23:34:00,41.6,35.9,29.89,West,268,12.0,15.0,80,0.00,,,0.01,0,WeatherCatV1.15B25,2013-05-30 06:34:00,
2013-05-29 23:39:00,41.5,35.8,29.89,NW,305,10.0,16.0,80,0.00,,,0.01,0,WeatherCatV1.15B25,2013-05-30 06:39:00,
2013-05-29 23:44:00,41.5,35.8,29.89,WNW,283,14.0,16.0,80,0.00,,,0.01,0,WeatherCatV1.15B25,2013-05-30 06:44:00,
2013-05-29 23:49:00,41.6,35.6,29.89,WNW,288,9.0,14.0,79,0.00,,,0.01,0,WeatherCatV1.15B25,2013-05-30 06:49:00,
2013-05-29 23:54:00,41.5,35.5,29.89,WNW,293,10.0,13.0,79,0.00,,,0.01,0,WeatherCatV1.15B25,2013-05-30 06:54:00,
2013-05-29 23:59:00,41.6,35.6,29.89,WNW,299,11.0,15.0,79,0.00,,,0.01,0,WeatherCatV1.15B25,2013-05-30 06:59:00,